Terminal Aerodrome Forecast
Issued by NWS Grand Forks, ND

Home | Current Version | Previous Version | Graphics & Text | Print | Product List | Glossary On
Versions: 1 2 3 4 5 6 7 8 9 10 11 12 13 14 15 16 17 18
027
FTUS43 KFGF 180744 AAA
TAFFAR
TAF AMD
KFAR 180744Z 1808/1906 01007KT P6SM BKN030
     FM181100 01005KT P6SM BKN150
     FM181500 VRB04KT P6SM SCT050 BKN120
     FM182000 18006KT P6SM SCT200=

USA.gov is the U.S. government's official web portal to all federal, state and local government web resources and services.